Location: Grand Rapids
(42.9630°N, 85.6680°W)
Time: 03:23:07
(UTC-04:00)

S-56A Canister/Altair - Pass Details

Date: 02 June 2024
Orbit: 637 x 2489 km, 38.9° (Epoch: 22 June)

Event Time Altitude Azimuth Distance (km) Brightness Sun altitude
Rises 02:44:30 0° 207° (SSW) 5,822 - -23.1°
Reaches altitude 10° 02:48:39 10° 199° (SSW) 4,972 - -22.9°
Exits shadow 02:55:09 26° 177° (S) 3,914 10.5 -22.6°
Maximum altitude 03:01:04 35° 141° (SE) 3,518 10.6 -22.2°
Drops below altitude 10° 03:13:08 10° 84° (E) 4,863 11.9 -21.4°
Sets 03:17:05 0° 76° (ENE) 5,687 12.5 -21.1°
